Wind_Speed
22 22 21 20 20 19 19 18 18 18 19 19 19 20 21 22 23 24 25 26 28 29 30 32 33 33 33 33 33 33 33 33 34 34 33 32 31 30 30 29 28 28 27
24 24 24 23 22 22 21 21 21 21 21 21 22 22 23 24 25 26 27 29 30 31 32 34 34 34 34 34 34 34 34 34 35 35 34 33 32 31 30 30 29 29 28
27 27 26 25 25 24 24 24 23 23 24 24 24 25 26 27 28 29 30 31 32 34 35 36 36 36 36 35 35 35 35 36 36 36 35 34 33 32 31 31 30 30 29
29 28 28 28 27 27 27 27 26 26 27 27 27 28 28 29 30 32 33 34 35 36 37 38 38 37 37 36 36 36 36 37 37 37 36 35 33 33 32 32 31 30 29
31 31 31 30 30 30 30 30 30 30 30 30 30 30 31 32 33 35 36 37 37 38 39 39 39 38 38 37 37 37 37 38 38 37 36 35 34 33 33 32 32 31 30
33 33 33 33 33 33 33 32 32 33 33 33 33 33 34 35 36 37 38 39 40 40 41 40 39 39 38 38 37 38 38 38 38 37 37 36 35 34 33 33 32 31 30
35 35 35 35 35 35 35 35 35 36 36 36 36 36 37 38 39 40 40 41 42 42 42 41 41 40 39 39 38 38 39 38 38 37 37 36 35 34 33 33 32 31 30
38 38 38 38 38 38 38 38 38 39 39 39 39 39 39 39 41 42 43 43 44 44 43 42 41 41 40 39 39 39 39 39 38 37 36 35 34 33 33 32 32 31 30
39 40 40 40 41 41 41 41 41 41 41 41 42 43 43 42 42 42 43 44 45 44 43 42 41 40 40 40 40 39 39 39 38 37 36 34 33 33 32 32 31 30 29
41 41 41 41 42 42 42 43 43 43 43 43 44 45 45 46 46 45 45 45 45 44 43 42 41 40 40 40 39 39 39 39 38 36 35 33 33 32 32 31 30 30 30
43 43 44 44 44 44 44 44 44 45 45 45 46 47 47 48 48 47 46 45 45 44 43 42 41 40 40 40 40 40 39 38 37 35 34 32 32 32 31 30 30 29 29
46 45 45 46 46 46 46 46 46 47 47 47 48 48 48 48 48 48 47 46 45 44 43 42 41 41 41 41 41 40 39 38 36 34 32 31 31 31 30 29 28 27 27
47 47 47 47 47 48 48 48 48 48 48 49 49 49 49 48 48 48 47 46 45 44 44 43 42 42 42 42 41 39 38 36 34 32 32 31 30 30 29 28 27 27 27
50 50 50 50 51 51 51 51 51 50 51 51 50 49 49 48 47 46 46 45 45 44 44 43 43 43 42 41 40 38 36 35 33 32 31 30 29 28 28 27 27 26 26
53 52 52 52 53 53 53 53 52 51 51 50 49 49 48 48 47 47 46 46 45 45 44 44 43 42 41 41 39 37 35 33 32 31 30 29 28 27 27 26 26 26 26
54 53 53 54 54 54 54 53 52 51 50 49 49 49 49 49 48 47 46 47 46 46 45 44 43 42 41 40 38 35 33 32 31 31 30 28 28 27 27 26 26 26 26
54 54 54 53 53 52 52 52 51 51 50 50 49 49 49 48 47 47 47 46 45 45 44 43 42 42 41 38 36 34 32 31 30 29 28 28 27 27 27 26 26 26 26
52 52 52 52 52 52 51 51 51 51 50 49 49 48 48 47 47 46 46 45 44 43 43 41 41 40 38 35 33 32 31 30 29 28 28 27 27 27 26 26 26 25 26
51 51 52 52 51 50 49 49 49 49 49 48 48 48 47 46 45 45 44 43 42 41 41 40 38 37 35 33 32 31 30 30 29 28 27 27 27 26 26 26 26 26 26
49 49 49 49 48 48 48 47 47 47 47 47 46 45 45 44 43 43 42 41 40 40 39 37 36 34 33 31 31 30 30 28 28 27 27 27 27 27 26 26 27 27 27
46 47 47 46 46 46 46 45 45 44 44 43 43 43 43 42 41 41 41 40 39 38 36 35 34 33 32 31 30 29 28 27 27 27 27 27 27 27 27 27 27 28 28
43 43 43 43 43 43 43 43 43 42 42 42 42 41 41 40 40 40 39 38 37 36 34 34 33 31 30 30 29 28 27 27 28 27 27 27 28 28 28 28 28 28 28
40 40 40 40 40 40 41 40 40 40 40 40 40 39 39 38 37 37 37 36 35 34 34 33 31 30 29 28 28 28 27 27 27 27 27 28 28 28 28 29 29 29 29
38 38 38 38 39 39 39 39 39 40 40 39 38 38 37 36 35 35 35 34 33 33 32 31 30 29 28 28 28 27 27 27 27 28 28 28 29 29 29 29 30 30 30
38 38 38 38 38 38 38 38 39 39 38 37 37 36 35 34 34 33 33 33 33 32 31 30 29 28 28 28 28 28 28 28 28 28 29 29 30 30 30 30 31 31 31
38 38 38 38 38 38 37 37 37 37 36 36 35 35 34 33 32 32 32 32 31 30 30 29 28 28 28 28 28 28 28 28 29 29 30 30 30 30 30 31 31 32 32
Wind_Direction
252 255 258 260 263 266 269 272 276 280 284 288 293 297 301 303 305 307 309 311 313 315 316 317 318 318 318 317 316 314 314 315 315 314 312 310 307 305 303 302 300 300 298
252 255 258 261 264 267 271 274 277 281 285 288 291 294 297 299 302 304 306 308 310 311 313 314 315 315 315 314 313 311 311 312 312 312 310 307 305 303 301 300 299 299 297
254 255 258 261 264 267 270 273 276 279 282 286 289 292 295 297 300 302 304 306 307 309 310 311 312 313 312 311 310 309 309 310 310 310 308 306 304 301 300 299 299 298 296
256 257 259 261 264 266 269 272 275 278 281 284 287 290 292 295 298 300 302 303 305 307 308 309 310 310 310 309 307 307 307 309 309 308 306 304 302 300 299 298 298 297 295
258 259 260 262 264 267 269 272 275 278 280 283 286 289 291 293 296 298 300 302 303 305 306 307 307 308 307 306 305 305 306 307 307 306 304 302 301 299 298 298 298 296 294
260 260 261 263 265 268 270 272 275 278 280 282 285 287 290 292 294 297 299 300 301 303 304 305 305 305 305 304 303 303 304 304 304 303 302 300 299 298 297 297 297 295 294
262 262 263 265 266 268 270 273 275 277 279 281 284 286 289 291 293 296 298 299 300 301 302 303 303 303 303 302 302 302 303 303 302 302 300 298 297 297 297 296 296 295 294
262 262 263 265 267 268 270 273 275 277 280 281 283 285 287 290 293 295 297 298 299 300 301 301 301 301 301 301 300 301 302 301 300 300 298 297 296 295 295 295 295 294 292
263 263 264 266 268 270 272 273 275 276 279 281 283 285 286 288 290 292 294 295 296 298 299 299 299 298 298 298 299 300 300 299 299 298 296 295 294 294 293 293 293 293 291
263 264 265 267 268 271 273 274 276 277 279 281 284 286 288 290 290 291 292 294 295 296 296 297 297 296 297 297 297 298 298 298 297 296 294 293 293 293 293 293 292 292 289
264 265 266 267 269 271 273 275 276 278 280 282 284 286 288 289 289 290 292 293 293 294 294 295 295 295 296 296 296 296 296 296 295 294 293 293 293 293 292 291 290 289 286
264 265 267 268 269 271 273 274 276 279 281 282 284 286 287 287 288 289 290 291 292 293 293 293 293 294 295 295 295 295 295 294 293 293 292 292 292 292 291 290 289 287 285
265 266 268 270 270 271 273 275 278 280 281 282 284 285 285 286 287 288 289 290 290 291 291 291 291 292 293 294 294 294 293 292 291 291 291 291 291 291 290 290 288 286 285
265 267 268 269 271 273 275 276 278 280 281 282 283 284 284 285 286 286 287 288 289 289 290 290 290 291 292 292 292 292 291 290 289 290 290 290 290 291 290 289 287 286 285
266 268 269 271 272 274 276 277 278 279 280 281 281 282 282 284 285 285 286 287 287 287 288 288 288 289 290 290 290 290 289 289 289 289 290 290 290 291 290 290 288 287 285
267 269 271 273 274 275 275 276 277 278 280 280 280 281 282 284 284 284 285 285 285 285 285 286 286 287 288 289 288 288 287 287 287 288 289 290 290 290 290 290 288 287 285
268 269 270 272 273 274 274 275 276 277 278 279 280 281 282 283 283 283 283 283 283 283 283 284 284 286 286 286 285 285 284 284 286 287 288 289 289 290 290 289 288 286 285
268 268 269 271 272 274 274 275 276 277 278 279 279 280 281 281 281 282 281 281 281 281 281 282 284 284 284 282 282 282 282 283 284 285 287 288 289 290 289 289 288 287 287
267 268 270 271 272 273 275 276 277 277 278 278 279 279 279 280 280 280 280 280 280 280 280 281 281 282 281 280 280 280 280 281 282 284 286 287 288 289 289 289 288 288 287
268 269 270 272 273 274 276 276 277 277 277 277 278 278 278 279 279 279 279 279 278 278 279 279 278 279 278 278 278 278 279 280 281 283 285 286 288 289 289 289 289 288 287
267 268 270 271 272 274 274 275 276 276 276 276 277 277 277 277 277 277 278 277 277 278 277 276 276 276 275 276 277 277 278 278 280 283 284 286 287 288 289 289 288 288 288
267 269 270 271 272 273 274 274 275 276 276 276 277 277 277 277 277 277 276 276 275 275 275 274 273 273 273 274 275 276 277 279 281 282 284 286 287 288 289 289 289 288 288
267 269 270 271 272 273 274 275 275 276 277 277 277 277 277 276 276 274 274 274 273 273 272 271 271 270 271 272 273 275 277 279 281 283 285 286 287 288 288 289 289 289 289
268 269 270 272 273 274 275 275 276 276 277 277 276 276 276 275 274 273 273 273 273 272 270 269 269 269 271 272 273 275 277 280 281 283 285 286 287 287 288 288 289 289 289
268 269 271 272 273 274 275 276 276 276 276 276 275 275 275 273 272 271 271 271 270 269 268 268 268 269 270 271 273 276 279 280 282 284 285 286 287 287 287 288 289 289 290
268 270 271 273 273 274 274 275 275 275 275 275 274 273 273 272 271 271 271 270 268 268 268 267 268 269 271 273 274 277 280 282 284 285 286 286 287 287 287 288 289 290 290
Height
5869 5870 5870 5871 5871 5870 5870 5870 5870 5869 5868 5867 5866 5865 5863 5862 5860 5858 5856 5854 5851 5849 5846 5843 5839 5836 5832 5829 5825 5821 5818 5814 5811 5807 5804 5800 5797 5794 5791 5789 5786 5784 5782
5865 5866 5866 5866 5866 5866 5866 5866 5866 5865 5864 5863 5862 5861 5859 5858 5856 5854 5852 5849 5846 5844 5840 5837 5834 5831 5827 5823 5819 5816 5812 5808 5805 5801 5798 5794 5791 5788 5785 5783 5780 5778 5776
5860 5861 5861 5862 5862 5862 5862 5861 5861 5860 5860 5859 5858 5856 5854 5852 5850 5848 5846 5844 5841 5838 5835 5831 5828 5824 5821 5817 5813 5809 5806 5802 5798 5795 5791 5788 5785 5782 5779 5776 5774 5772 5770
5854 5855 5856 5856 5856 5856 5856 5856 5856 5855 5854 5854 5852 5851 5849 5847 5845 5842 5840 5837 5835 5832 5828 5825 5821 5818 5814 5811 5807 5803 5799 5795 5792 5788 5785 5781 5778 5775 5772 5770 5768 5766 5764
5848 5849 5849 5850 5850 5850 5850 5850 5850 5849 5848 5847 5846 5845 5843 5841 5838 5836 5833 5830 5828 5825 5821 5818 5815 5811 5807 5804 5800 5796 5792 5788 5785 5781 5777 5774 5771 5768 5766 5763 5761 5759 5757
5841 5842 5842 5843 5843 5843 5843 5843 5843 5842 5841 5841 5840 5838 5836 5834 5831 5828 5826 5823 5820 5817 5814 5811 5807 5804 5800 5796 5793 5789 5785 5781 5778 5774 5770 5767 5764 5761 5758 5756 5754 5751 5750
5833 5834 5835 5835 5836 5836 5836 5836 5835 5835 5834 5833 5832 5831 5829 5826 5823 5821 5818 5815 5812 5809 5806 5802 5799 5795 5792 5788 5785 5781 5778 5774 5770 5767 5763 5760 5757 5754 5751 5749 5746 5744 5742
5825 5826 5827 5827 5828 5828 5828 5827 5827 5826 5825 5824 5823 5822 5821 5819 5815 5812 5809 5806 5803 5800 5797 5794 5790 5787 5783 5780 5776 5773 5770 5766 5762 5759 5756 5752 5749 5747 5744 5741 5739 5737 5735
5816 5817 5818 5818 5819 5819 5819 5818 5818 5817 5816 5815 5813 5812 5811 5810 5807 5804 5800 5797 5794 5791 5788 5785 5781 5778 5775 5772 5768 5765 5761 5758 5754 5751 5748 5745 5742 5739 5737 5734 5732 5730 5728
5807 5808 5809 5809 5809 5809 5809 5809 5808 5807 5807 5805 5804 5802 5801 5798 5796 5795 5791 5788 5784 5782 5779 5776 5772 5769 5766 5763 5760 5756 5753 5749 5746 5742 5740 5737 5734 5731 5729 5727 5725 5723 5721
5797 5798 5799 5799 5800 5800 5800 5799 5798 5797 5797 5795 5794 5792 5790 5788 5785 5783 5781 5778 5775 5772 5769 5766 5763 5760 5757 5754 5751 5747 5744 5740 5737 5734 5731 5729 5726 5724 5721 5719 5717 5715 5713
5787 5788 5789 5789 5789 5789 5789 5789 5788 5787 5786 5785 5783 5781 5779 5777 5775 5772 5770 5767 5764 5762 5758 5756 5753 5750 5747 5744 5741 5738 5735 5731 5728 5726 5723 5721 5718 5716 5714 5712 5710 5708 5706
5777 5778 5778 5778 5778 5778 5778 5778 5777 5776 5775 5774 5772 5770 5768 5766 5763 5761 5759 5756 5753 5751 5748 5746 5743 5740 5737 5734 5731 5728 5725 5722 5720 5717 5715 5713 5710 5708 5706 5704 5702 5701 5699
5766 5767 5767 5767 5767 5767 5767 5766 5766 5765 5763 5762 5760 5759 5757 5754 5752 5750 5748 5745 5743 5741 5738 5736 5733 5730 5727 5724 5722 5719 5716 5714 5711 5709 5707 5705 5703 5701 5699 5697 5695 5693 5692
5754 5755 5755 5755 5755 5755 5755 5754 5754 5753 5751 5750 5748 5747 5745 5743 5741 5739 5737 5734 5733 5730 5728 5725 5723 5720 5717 5715 5712 5710 5707 5705 5703 5701 5699 5697 5695 5693 5691 5689 5687 5686 5684
5742 5743 5743 5743 5743 5743 5743 5742 5741 5740 5739 5738 5736 5735 5733 5731 5729 5727 5725 5723 5721 5719 5717 5715 5712 5710 5707 5705 5703 5700 5698 5697 5695 5693 5691 5689 5687 5686 5684 5682 5680 5679 5677
5730 5731 5731 5731 5731 5730 5730 5729 5729 5728 5727 5726 5724 5723 5721 5719 5718 5716 5714 5712 5709 5708 5706 5704 5702 5699 5697 5695 5693 5691 5690 5688 5687 5685 5683 5681 5679 5678 5676 5674 5673 5671 5670
5718 5718 5718 5718 5718 5718 5717 5717 5716 5715 5715 5713 5712 5711 5709 5707 5706 5704 5702 5700 5698 5696 5695 5693 5691 5689 5687 5686 5684 5683 5681 5680 5679 5677 5675 5674 5672 5670 5668 5667 5665 5664 5662
5705 5705 5706 5706 5706 5705 5705 5704 5704 5703 5702 5701 5700 5698 5697 5695 5694 5692 5690 5689 5687 5685 5684 5682 5681 5679 5678 5676 5675 5674 5673 5671 5670 5669 5667 5666 5664 5662 5661 5659 5658 5656 5655
5693 5694 5694 5694 5693 5693 5693 5692 5691 5691 5690 5689 5687 5686 5685 5683 5682 5681 5679 5677 5676 5675 5673 5672 5671 5669 5668 5667 5666 5665 5664 5663 5662 5661 5659 5658 5656 5655 5653 5651 5650 5648 5647
5682 5682 5682 5681 5681 5681 5681 5680 5679 5679 5677 5676 5675 5674 5673 5672 5670 5669 5668 5667 5665 5664 5663 5662 5661 5660 5659 5658 5658 5657 5656 5655 5654 5653 5651 5650 5648 5647 5645 5644 5642 5640 5638
5670 5670 5670 5670 5670 5670 5669 5668 5668 5667 5666 5665 5664 5663 5661 5660 5659 5658 5657 5656 5655 5654 5653 5652 5651 5651 5650 5650 5649 5648 5648 5647 5646 5645 5643 5642 5640 5638 5637 5635 5633 5632 5630
5660 5660 5660 5660 5659 5658 5658 5657 5656 5656 5655 5654 5653 5651 5650 5649 5648 5648 5647 5646 5645 5644 5644 5643 5642 5642 5641 5641 5640 5640 5639 5638 5637 5636 5635 5633 5632 5630 5628 5626 5625 5623 5621
5650 5650 5649 5649 5648 5648 5647 5646 5645 5644 5644 5643 5642 5641 5640 5639 5638 5637 5637 5636 5635 5635 5634 5633 5633 5633 5633 5632 5632 5632 5631 5630 5629 5627 5626 5625 5623 5621 5619 5617 5616 5614 5612
5639 5639 5639 5638 5638 5637 5636 5635 5634 5634 5633 5632 5631 5630 5629 5629 5628 5628 5627 5627 5626 5625 5625 5625 5624 5624 5624 5624 5624 5623 5622 5621 5620 5619 5617 5616 5614 5612 5610 5608 5606 5604 5602
5629 5629 5628 5628 5627 5626 5626 5625 5624 5623 5622 5622 5621 5620 5620 5619 5618 5618 5618 5617 5617 5617 5616 5616 5616 5616 5616 5615 5615 5614 5614 5613 5611 5610 5608 5606 5604 5602 5601 5599 5597 5594 5592